Location: Molveno
(46.1500°N, 10.9667°E)
Time: 08:16:26
(UTC+00:00)

Cosmos 1515 Rocket - Pass Details

Date: 05 July 2020
Orbit: 606 x 630 km, 82.5° (Epoch: 05 August)

Event Time Altitude Azimuth Distance (km) Brightness Sun altitude
Rises 22:35:44 0° 358° (N) 2,878 8.5 -20.4°
Reaches altitude 10° 22:38:06 10° 6° (N) 1,971 7.2 -20.5°
Maximum altitude 22:42:09 37° 75° (ENE) 952 4.5 -20.6°
Enters shadow 22:43:15 32° 108° (ESE) 1,058 4.5 -20.7°
